Voltar ao catálogo

STARLINK-2559

AtivoComunicaçõesVLEO
NORAD 48298·PAYLOAD·🇺🇸 United States

Lançado Apr 29, 2021 de Cape Canaveral Space Force Station

Loading…

Próximas Passagens (próximas 24 horas)

TLE

AtualizadoSource: CelesTrak SupGP

Época: Sep 15, 2026, 02:43 UTC

1 48298C 21036Y   26258.11368056  .00027169  00000+0  60085-3 0  2580
2 48298  53.1532 268.3511 0001383  36.2778 317.8847 15.43226590    12

Acompanhe STARLINK-2559 em tempo real com AllMySat

Download on the App Store